Weather History for CYXE - May, 2013

Change the Weather History Date:

Friday, May 10, 2013

  Actual Average Record
Temperature  
Mean Temperature 44 °F -  
Max Temperature 53 °F 68 °F 64 °F (1998)
Min Temperature 35 °F 43 °F 15 °F (2004)
Degree Days  
Heating Degree Days 21    
Moisture  
Dew Point 29 °F    
Average Humidity 56    
Maximum Humidity 87    
Minimum Humidity 26    
Precipitation  
Precipitation 0.00 in 0.07 in - ()
Sea Level Pressure  
Sea Level Pressure 30.34 in    
Wind  
Wind Speed 15 mph ()    
Max Wind Speed 23 mph    
Max Gust Speed 31 mph    
Visibility 15.0 miles    
Events Rain    
Averages and records for this station are not official NWS values.
T = Trace of Precipitation, MM = Missing Value Source: Averaged Metar Reports

Daily Weather History Graph

Daily Weather History Graph

Search for Another Location

Airport or City:

Trip Planner

Search our weather history database for the weather conditions in past years. The results will help you decide how hot, cold, wet, or windy it might be!

Date:

Astronomy

May. 10, 2013 Rise Set
Actual Time 5:19 AM CST 8:47 PM CST
Civil Twilight 4:38 AM CST 9:29 PM CST
Nautical Twilight 3:42 AM CST 10:25 PM CST
Astronomical Twilight 2:23 AM CST 11:47 PM CST
Moon 5:45 AM CST (5/10) 9:42 PM CST (5/10)
Length of Visible Light 16h 50m
Length of Day
15h 28m
New Moon, 1% of the Moon is Illuminated
May 10
New Moon
May 17
First Quarter
May 24
Full
May 31
Last Quarter
Jun 8
New

Hourly Weather History & Observations

Time (CST) Temp. Windchill Dew Point Humidity Pressure Visibility Wind Dir Wind Speed Gust Speed Precip Events Conditions
12:00 AM 50.0 °F - 42.8 °F 76% 30.06 in 15.0 mi NNE 21.9 mph 28.8 mph N/A Rain Light Rain Showers
1:00 AM 46.4 °F 39.0 °F 42.8 °F 87% 30.07 in 15.0 mi NE 19.6 mph 27.6 mph N/A Rain Light Rain Showers
1:43 AM 46.4 °F 41.1 °F 42.8 °F 87% 30.09 in 15.0 mi NNE 11.5 mph - N/A   Overcast
2:00 AM 46.4 °F 40.7 °F 42.8 °F 87% 30.09 in 15.0 mi NE 12.7 mph - N/A   Mostly Cloudy
3:00 AM 44.6 °F 37.4 °F 41.0 °F 87% 30.15 in 15.0 mi North 16.1 mph 26.5 mph N/A   Mostly Cloudy
4:00 AM 42.8 °F 35.4 °F 37.4 °F 81% 30.19 in 15.0 mi North 15.0 mph 20.7 mph N/A   Scattered Clouds
5:00 AM 41.0 °F 33.1 °F 37.4 °F 87% 30.22 in 15.0 mi NNW 15.0 mph - N/A   Mostly Cloudy
6:00 AM 39.2 °F 31.6 °F 35.6 °F 87% 30.27 in 15.0 mi North 12.7 mph - N/A   Mostly Cloudy
7:00 AM 41.0 °F 33.9 °F 35.6 °F 81% 30.30 in 15.0 mi North 12.7 mph - N/A   Mostly Cloudy
8:00 AM 44.6 °F 37.4 °F 35.6 °F 71% 30.34 in 15.0 mi North 16.1 mph - N/A   Scattered Clouds
9:00 AM 46.4 °F 40.1 °F 30.2 °F 53% 30.37 in 15.0 mi North 15.0 mph - N/A   Scattered Clouds
10:00 AM 48.2 °F - 24.8 °F 40% 30.38 in 15.0 mi North 18.4 mph - N/A   Mostly Cloudy
11:00 AM 50.0 °F - 28.4 °F 43% 30.39 in 15.0 mi North 18.4 mph - N/A   Mostly Cloudy
12:00 PM 50.0 °F - 28.4 °F 43% 30.40 in 15.0 mi NNW 23.0 mph 31.1 mph N/A   Mostly Cloudy
1:00 PM 51.8 °F - 24.8 °F 35% 30.41 in 15.0 mi North 16.1 mph 26.5 mph N/A   Mostly Cloudy
2:00 PM 53.6 °F - 24.8 °F 33% 30.40 in 15.0 mi NNW 21.9 mph 29.9 mph N/A   Mostly Cloudy
3:00 PM 53.6 °F - 23.0 °F 30% 30.40 in 15.0 mi North 18.4 mph 28.8 mph N/A   Scattered Clouds
4:00 PM 53.6 °F - 21.2 °F 28% 30.40 in 15.0 mi NNW 23.0 mph - N/A   Scattered Clouds
5:00 PM 53.6 °F - 19.4 °F 26% 30.41 in 15.0 mi North 21.9 mph 29.9 mph N/A   Partly Cloudy
6:00 PM 51.8 °F - 17.6 °F 26% 30.43 in 15.0 mi North 20.7 mph 28.8 mph N/A   Partly Cloudy
7:00 PM 50.0 °F - 19.4 °F 30% 30.44 in 15.0 mi NNE 17.3 mph 27.6 mph N/A   Clear
8:00 PM 46.4 °F 39.8 °F 19.4 °F 34% 30.47 in 15.0 mi NNE 16.1 mph 23.0 mph N/A   Clear
9:00 PM 41.0 °F 34.7 °F 21.2 °F 45% 30.49 in 15.0 mi NE 10.4 mph - N/A   Clear
10:00 PM 39.2 °F 31.6 °F 19.4 °F 45% 30.51 in 15.0 mi NE 12.7 mph - N/A   Clear
10:48 PM 35.6 °F 28.0 °F 19.4 °F 52% 30.52 in 15.0 mi NE 10.4 mph - N/A   Clear
11:00 PM 35.6 °F 28.6 °F 19.4 °F 52% 30.52 in 15.0 mi NE 9.2 mph - N/A   Clear